Weather Roundup
Issued by NWS Springfield, MO

Home | Current Version | Previous Version | Text Only | Print | Product List | Glossary On
Versions: 1 2 3 4 5 6 7 8 9 10 11 12 13 14 15 16 17 18 19 20 21 22 23 24 25 26 27 28 29 30 31 32 33 34 35 36 37 38 39 40 41 42 43 44 45 46 47 48 49 50
000
NZUS99 KSGF 270407
HRRSGF

HOURLY WEATHER
NATIONAL WEATHER SERVICE SPRINGFIELD MO
1000 PM CST WED NOV 26 2014

......SGF CWA......

CITY           SKY/WX    TMP DP  RH WIND       PRES   REMARKS
SPRINGFIELD    CLOUDY    34  25  69 NW23      30.28R WCI  22
JOPLIN         PTCLDY    32  24  72 NW12      30.36R WCI  23
WEST PLAINS    CLOUDY    37  27  67 NW17G30   30.19R WCI  27
ROLLA          CLOUDY    31  28  89 W18G28    30.17R FOG     WCI  19
OSAGE BEACH    CLOUDY    34  25  69 NW10G18   30.24R WCI  26
BRANSON        MOCLDY    36  27  69 NW7G16    30.26R WCI  30

......SURROUNDING SGF CWA......

CITY           SKY/WX    TMP DP  RH WIND       PRES   REMARKS
CHANUTE        CLEAR     29  23  78 NW10      30.39R WCI  20
PARSONS        CLEAR     32  24  72 NW10      30.40R WCI  24
COFFEYVILLE    CLEAR     34  24  67 NW14      30.39R WCI  25
EMPORIA        CLEAR     27  20  75 NW12G21   30.41R WCI  17
GROVE OK       CLEAR     36  27  69 NW10G18   30.37R WCI  28
ROGERS AR      CLOUDY    34  25  69 NW9       30.31R WCI  27
SILOAM SPRINGS CLEAR     34  21  60 NW17G25   30.35R WCI  23
HARRISON AR    CLEAR     35  26  69 NW10G17   30.24R WCI  27
NEAR YELLVILLE CLEAR     39  25  56 NW14G23   30.23R WCI  31

......KANSAS AND MISSOURI......

CITY           SKY/WX    TMP DP  RH WIND       PRES   REMARKS
KANSAS CTY INT CLOUDY    29  22  75 NW12      30.36R WCI  19
DOWNTOWN KC    CLOUDY    31  22  69 NW13G21   30.37R WCI  21
COLUMBIA       CLOUDY    33  30  88 NW17G25   30.20R WCI  22
SEDALIA        CLOUDY    32  27  81 NW16      30.28R WCI  21
ST JOSEPH      CLOUDY    27  20  75 N21G29    30.39R WCI  13
ST LOUIS       LGT SNOW  34  30  86 N6        30.13R VSB 1   WCI  29
SPIRIT OF STL  LGT SNOW  34  32  92 NW14      30.13R FOG     WCI  25
KIRKSVILLE     CLOUDY    29  27  92 N12       30.25R FOG     WCI  19
WICHITA        PTCLDY    34  21  59 N14       30.42R WCI  25
TOPEKA         CLOUDY    29  20  69 NW15      30.41R WCI  18
OLATHE         CLOUDY    29  22  75 N17G26    30.34R WCI  17

......TENNESSEE......

CITY           SKY/WX    TMP DP  RH WIND       PRES   REMARKS
MEMPHIS        PTCLDY    44  32  62 CALM      30.18R
NASHVILLE      CLOUDY    41  36  82 W13G22    30.05R

......ARKANSAS.......

CITY           SKY/WX    TMP DP  RH WIND       PRES   REMARKS
FAYETTEVILLE   PTCLDY    34  26  72 NW10      30.32R WCI  26
FT SMITH       CLEAR     43  25  49 NW10      30.33R
LITTLE ROCK    CLEAR     48  27  44 W9        30.23R

......OKLAHOMA.......

CITY           SKY/WX    TMP DP  RH WIND       PRES   REMARKS
TULSA          PTCLDY    38  25  59 N14       30.38R WCI  30
PONCA CITY     CLEAR     32  23  69 N9        30.39R WCI  24
MCALESTER      CLEAR     43  26  51 NW8       30.38R
OKLAHOMA CITY  PTCLDY    42  22  44 N12       30.40R

......IOWA............

CITY           SKY/WX    TMP DP  RH WIND       PRES   REMARKS
DES MOINES     FLURRIES  24  20  84 NW13      30.33R WCI  12
QUAD CITIES    CLOUDY    27  20  75 N3        30.24R

......ILLINOIS........

CITY           SKY/WX    TMP DP  RH WIND       PRES   REMARKS
QUINCY         LGT SNOW  29  27  92 N15       30.21R FOG     WCI  18
CHICAGO        CLOUDY    28  23  81 NW10      30.16S WCI  19




USA.gov is the U.S. government's official web portal to all federal, state and local government web resources and services.